[[{"header":{"parameterUnit":"m.s-1","parameterCategory":2,"la1":30.2991,"la2":30.254,"lo1":-89.0895,"lo2":-89.0444,"dy":0.0017,"dx":0.0017,"nx":28,"ny":28,"refTime":"2025-12-15T09:00:00:Z","depth":"0","parameterNumber":2,"parameterNumberName":"U-component_of_CURRENTS"},"data":[0,0,0,0,0,0,0,0,0,0,0,0,0,0,0,0,0,0,0,0,0,0,0,0,0,0,0,0,0,0,0,0,0,0,0,0,0,0,0,0,0,0,0,0,0,0,0,0,0,0,0,0,0,0,0,0,0,0,-0.2786,-0.2786,0,-0.2826,-0.2826,-0.2826,-0.2752,-0.2749,-0.2747,-0.2745,-0.2686,-0.2687,-0.2687,0,0,0,0,0,0,0,0,0,0,0,0,0,-0.2654,-0.2657,-0.2785,-0.2786,-0.2787,-0.2826,-0.2826,-0.2826,-0.2752,-0.2749,-0.2747,-0.2744,-0.2686,-0.2687,-0.2688,0,0,0,0,0,0,0,0,0,0,0,0,0,-0.2702,-0.2658,-0.2785,-0.2757,-0.2755,-0.2826,-0.2826,-0.2826,-0.2753,-0.2749,-0.2746,-0.2743,-0.2686,-0.2687,-0.2688,-0.2758,0,0,-0.269,-0.269,0,0,0,0,0,0,0,0,-0.2699,-0.2706,-0.276,-0.2759,-0.2757,-0.2783,-0.2759,-0.28,-0.2753,-0.275,-0.2745,-0.2741,-0.2714,-0.2712,-0.2724,-0.2756,-0.2753,-0.269,-0.269,-0.2691,-0.2691,0,0,0,0,0,0,0,-0.2696,-0.2704,-0.2798,-0.2762,-0.276,-0.2746,-0.2748,-0.2766,-0.2746,-0.275,-0.2746,-0.2756,-0.2711,-0.2724,-0.2722,-0.2752,-0.269,-0.2691,-0.2691,-0.2691,-0.277,-0.2772,0,0,0,0,0,0,-0.2701,-0.2702,-0.2797,-0.28,-0.2723,-0.2751,-0.2754,-0.2775,-0.2748,-0.2742,-0.2759,-0.2753,-0.2724,-0.2721,-0.272,-0.2732,-0.2691,-0.2691,-0.2692,-0.2769,-0.2771,-0.2772,0,0,0,0,0,0,-0.2698,-0.271,-0.2795,-0.2753,-0.2763,-0.2757,-0.2782,-0.2778,-0.2774,-0.2756,-0.2747,-0.2757,-0.2722,-0.2719,-0.2731,-0.2731,-0.2692,-0.2692,-0.2767,-0.2769,-0.2772,-0.2802,0,0,0,0,0,0,-0.2695,-0.2709,-0.2722,-0.2754,-0.2766,-0.2833,-0.2785,-0.2781,-0.2788,-0.2779,-0.2752,-0.2744,-0.2719,-0.273,-0.2732,-0.2732,-0.2693,-0.2765,-0.2768,-0.2771,-0.2799,-0.2805,-0.2811,0,0,0,0,0,-0.269,-0.2723,-0.2723,-0.2734,-0.2786,-0.2834,-0.2839,-0.2821,-0.2791,-0.2802,-0.2783,-0.2744,-0.275,-0.2733,-0.2734,-0.2734,-0.2763,-0.2767,-0.277,-0.2796,-0.2804,-0.281,0,0,0,0,0,0,-0.2673,-0.2721,-0.272,-0.2765,-0.2796,-0.2822,-0.2834,-0.2829,-0.2827,-0.281,-0.2778,-0.2771,-0.2778,-0.277,-0.2752,-0.2769,-0.2746,-0.2751,-0.2766,-0.2773,-0.2779,-0.275,-0.2694,0,0,0,0,0,-0.2681,-0.271,-0.2757,-0.2788,-0.2808,-0.2823,-0.2838,-0.2835,-0.2843,-0.2837,-0.2822,-0.2807,-0.2804,-0.2796,-0.2798,-0.2822,-0.2798,-0.2821,-0.2827,-0.2832,-0.2813,-0.2792,-0.2793,-0.2785,-0.2785,-0.2784,0,0,-0.2679,-0.2712,-0.2725,-0.2785,-0.2804,-0.2835,-0.2822,-0.2854,-0.286,-0.2835,-0.2835,-0.2834,-0.2818,-0.283,-0.2832,-0.2816,-0.283,-0.2837,-0.284,-0.2818,-0.2796,-0.2796,-0.2796,-0.2787,-0.2787,-0.2786,0,0,-0.2689,-0.2726,-0.2749,-0.2783,-0.2826,-0.2845,-0.2856,-0.2891,-0.2884,-0.2913,-0.2881,-0.2881,-0.2893,-0.287,-0.2861,-0.2909,-0.2866,-0.2913,-0.2911,-0.2893,-0.2893,-0.2892,-0.2887,-0.2885,-0.291,-0.2911,-0.2911,0,-0.268,-0.2719,-0.2763,-0.2797,-0.2815,-0.2848,-0.287,-0.289,-0.2919,-0.2915,-0.2911,-0.2913,-0.2903,-0.2891,-0.2901,-0.2916,-0.2904,-0.2881,-0.2897,-0.2895,-0.2894,-0.2889,-0.2887,-0.2912,-0.2912,-0.2912,-0.2912,0,-0.2704,-0.2734,-0.2756,-0.28,-0.2834,-0.2864,-0.2904,-0.2926,-0.2931,-0.2939,-0.2943,-0.2946,-0.2932,-0.2941,-0.2932,-0.2919,-0.2916,-0.2909,-0.287,-0.2896,-0.2891,-0.2888,-0.2915,-0.2914,-0.2914,-0.2913,0,0,-0.2669,-0.2752,-0.2753,-0.2767,-0.2834,-0.2861,-0.2893,-0.2922,-0.2922,-0.2952,-0.2943,-0.295,-0.2945,-0.2935,-0.293,-0.2915,-0.291,-0.2906,-0.2904,-0.2885,-0.2877,-0.2815,-0.2806,-0.2901,-0.29,-0.2899,-0.2886,0,-0.2659,-0.2707,-0.2754,-0.2784,-0.2808,-0.2857,-0.2881,-0.2912,-0.2933,-0.2945,-0.2945,-0.2943,-0.2944,-0.2939,-0.2927,-0.2916,-0.2899,-0.2914,-0.2868,-0.2866,-0.2793,-0.2798,-0.2675,-0.2646,-0.2882,-0.2882,-0.2881,0,-0.2646,-0.2682,-0.271,-0.2764,-0.2779,-0.2802,-0.2835,-0.2865,-0.2899,-0.2916,-0.292,-0.2928,-0.292,-0.2918,-0.2893,-0.2903,-0.2883,-0.2875,-0.2874,-0.2792,-0.2797,-0.2655,-0.2631,-0.2602,-0.2876,-0.2876,-0.2877,0,-0.2572,-0.2639,-0.2652,-0.2674,-0.2752,-0.2761,-0.2794,-0.284,-0.2862,-0.2888,-0.2907,-0.2903,-0.2905,-0.2882,-0.2878,-0.288,-0.2851,-0.2852,-0.2777,-0.2774,-0.2644,-0.263,-0.2562,-0.2812,-0.2812,-0.2812,-0.2812,0,-0.2531,-0.2537,-0.2616,-0.2625,-0.2636,-0.2707,-0.2721,-0.2758,-0.2811,-0.2827,-0.2874,-0.2885,-0.2893,-0.2891,-0.2873,-0.2817,-0.2845,-0.2762,-0.2754,-0.2656,-0.2644,-0.2592,-0.2615,-0.2812,-0.2812,-0.2812,-0.2812,0,-0.2438,-0.2494,-0.2513,-0.2585,-0.2602,-0.2605,-0.2681,-0.2693,-0.2761,-0.2786,-0.2795,-0.2865,-0.2859,-0.2867,-0.284,-0.2804,-0.2706,-0.2733,-0.2626,-0.2604,-0.2484,-0.2514,-0.243,-0.2363,-0.2632,-0.263,-0.2629,0,-0.2391,-0.2393,-0.2461,-0.2467,-0.2493,-0.2524,-0.2544,-0.2638,-0.2664,-0.2766,-0.2765,-0.28,-0.2794,-0.2759,-0.27,-0.2643,-0.2636,-0.2499,-0.2463,-0.2442,-0.2471,-0.2493,-0.2444,-0.2324,-0.232,-0.2317,-0.2314,0,-0.2294,-0.232,-0.2339,-0.2357,-0.2374,-0.2404,-0.2445,-0.247,-0.2578,-0.2615,-0.2659,-0.2669,-0.2661,-0.2557,-0.2504,-0.2452,-0.2421,-0.243,-0.2422,-0.2224,-0.2226,-0.2169,-0.2398,-0.2286,-0.2289,-0.2291,-0.2293,-0.2294,-0.2205,-0.2193,-0.2219,-0.222,-0.2243,-0.2252,-0.2234,-0.2306,-0.2335,-0.2365,-0.2476,-0.2457,-0.2424,-0.2325,-0.228,-0.2147,-0.2218,-0.2072,-0.2114,-0.2142,-0.2049,-0.2221,-0.2092,-0.2094,-0.2095,-0.2096,-0.2097,0,-0.2081,-0.2081,-0.208,-0.208,-0.2047,-0.2108,-0.2135,-0.2101,-0.2085,-0.2161,-0.2174,-0.2169,-0.2063,-0.205,-0.1945,-0.1858,-0.1815,-0.182,-0.1816,-0.1783,-0.1927,-0.1883,-0.1684,-0.1684,-0.1684,-0.1684,-0.1684,-0.1684,-0.2016,-0.1967,-0.1967,-0.1872,-0.1868,-0.1784,-0.1767,-0.1746,-0.1767,-0.1752,-0.1785,-0.1863,-0.187,-0.1947,-0.1811,-0.1719,-0.1681,-0.1626,-0.1674,-0.1783,-0.181,-0.1835,-0.1796,-0.1582,-0.1582,-0.144,-0.144,-0.1439]},{"header":{"parameterUnit":"m.s-1","parameterCategory":2,"la1":30.2991,"la2":30.254,"lo1":-89.0895,"lo2":-89.0444,"dy":0.0017,"dx":0.0017,"nx":28,"ny":28,"refTime":"2025-12-15T09:00:00:Z","depth":"0","parameterNumber":3,"parameterNumberName":"V-component_of_CURRENTS"},"data":[0,0,0,0,0,0,0,0,0,0,0,0,0,0,0,0,0,0,0,0,0,0,0,0,0,0,0,0,0,0,0,0,0,0,0,0,0,0,0,0,0,0,0,0,0,0,0,0,0,0,0,0,0,0,0,0,0,0,-0.0242,-0.0242,0,-0.0167,-0.0166,-0.0165,-0.0108,-0.0107,-0.0107,-0.0107,0.0014,0.0016,0.0019,0,0,0,0,0,0,0,0,0,0,0,0,0,-0.0278,-0.0278,-0.0243,-0.0242,-0.0241,-0.0167,-0.0166,-0.0164,-0.0108,-0.0107,-0.0107,-0.0106,0.0013,0.0016,0.002,0,0,0,0,0,0,0,0,0,0,0,0,0,-0.0237,-0.0278,-0.0243,-0.0205,-0.0201,-0.0167,-0.0166,-0.0164,-0.0108,-0.0107,-0.0107,-0.0106,0.0012,0.0016,0.002,0.0036,0,0,0.0033,0.0035,0,0,0,0,0,0,0,0,-0.024,-0.0236,-0.0211,-0.0207,-0.0203,-0.0147,-0.0134,-0.0096,-0.0108,-0.0141,-0.0107,-0.0106,-0.0038,-0.0029,-0.0014,0.0041,0.0046,0.0033,0.0036,0.0038,0.0039,0,0,0,0,0,0,0,-0.0243,-0.0238,-0.0211,-0.0211,-0.0205,-0.0171,-0.0165,-0.0126,-0.0091,-0.0138,-0.0135,-0.0129,-0.0035,-0.0019,-0.0011,0.0048,0.0033,0.0037,0.004,0.0042,0.0149,0.0149,0,0,0,0,0,0,-0.0259,-0.0241,-0.0213,-0.0209,-0.0222,-0.0171,-0.0165,-0.0164,-0.0093,-0.0082,-0.0129,-0.0127,-0.0026,-0.0016,-0.0007,0.0026,0.0038,0.0042,0.0044,0.0149,0.0149,0.015,0,0,0,0,0,0,-0.026,-0.0258,-0.0216,-0.0224,-0.0217,-0.0172,-0.0172,-0.0163,-0.0148,-0.0087,-0.0075,-0.0123,-0.0026,-0.0013,0.0029,0.0031,0.0044,0.0048,0.0149,0.0149,0.0149,0.0085,0,0,0,0,0,0,-0.0262,-0.0259,-0.0266,-0.0226,-0.0217,-0.0203,-0.0172,-0.0162,-0.0146,-0.0142,-0.0077,-0.0066,-0.0024,0.0022,0.0033,0.0037,0.0051,0.0148,0.0149,0.0149,0.0087,0.0083,0.008,0,0,0,0,0,-0.0263,-0.0281,-0.0267,-0.0263,-0.0228,-0.0203,-0.0196,-0.016,-0.0147,-0.0144,-0.0097,-0.0068,0.0034,0.0026,0.0039,0.0043,0.0148,0.0149,0.0149,0.0088,0.0084,0.008,0,0,0,0,0,0,-0.0304,-0.0276,-0.0259,-0.0269,-0.0239,-0.0194,-0.0193,-0.0167,-0.0129,-0.0126,-0.0066,-0.005,-0.0012,0.0024,0.0014,0.0077,0.0096,0.01,0.0046,0.0042,0.0039,0.0018,0.0055,0,0,0,0,0,-0.0317,-0.032,-0.0283,-0.029,-0.028,-0.0237,-0.0224,-0.02,-0.0161,-0.0144,-0.0097,-0.0046,0.0,0.0026,0.007,0.0102,0.0137,0.0116,0.0112,0.0109,0.0102,0.0145,0.0144,0.0152,0.0152,0.0152,0,0,-0.0335,-0.032,-0.0322,-0.0299,-0.0274,-0.0267,-0.0227,-0.0215,-0.0203,-0.0137,-0.0107,-0.0058,0.0006,0.0044,0.0064,0.0075,0.0128,0.011,0.0106,0.0101,0.0145,0.0144,0.0143,0.0152,0.0152,0.0152,0,0,-0.0376,-0.036,-0.0376,-0.0355,-0.0327,-0.0297,-0.0297,-0.0253,-0.0227,-0.0193,-0.014,-0.0092,-0.0026,0.0024,0.0056,0.0061,0.0107,0.0076,0.0046,0.0087,0.0086,0.0086,0.0138,0.0143,0.0077,0.0077,0.0076,0,-0.04,-0.0412,-0.0376,-0.0383,-0.0373,-0.0316,-0.0326,-0.029,-0.0236,-0.0215,-0.0194,-0.009,-0.0035,0.0018,0.0024,0.0053,0.0084,0.0052,0.008,0.0081,0.0082,0.0135,0.0142,0.0073,0.0074,0.0074,0.0074,0,-0.0449,-0.0454,-0.0463,-0.045,-0.0433,-0.0432,-0.038,-0.0356,-0.0317,-0.0275,-0.0218,-0.0141,-0.0079,-0.005,-0.0009,0.0028,0.0052,0.0067,0.0084,0.0077,0.0134,0.0142,0.0069,0.007,0.0071,0.0072,0,0,-0.051,-0.0501,-0.0503,-0.0508,-0.0468,-0.0462,-0.0438,-0.0398,-0.0384,-0.0317,-0.029,-0.0199,-0.0154,-0.0114,-0.0052,-0.0009,0.0035,0.0026,0.0029,0.0066,0.0132,0.0192,0.0207,0.0048,0.0049,0.0049,0.0173,0,-0.0558,-0.0595,-0.0568,-0.0588,-0.06,-0.054,-0.0523,-0.0476,-0.0422,-0.0378,-0.0288,-0.0238,-0.0178,-0.0148,-0.0096,0.0003,0.005,0.0001,0.0144,0.0148,0.0193,0.0216,0.024,0.0355,0.018,0.0182,0.0183,0,-0.0611,-0.0629,-0.0666,-0.0659,-0.0658,-0.0655,-0.0618,-0.0593,-0.0511,-0.0468,-0.0398,-0.0324,-0.0232,-0.0192,-0.0035,-0.0072,0.002,0.0095,0.0102,0.0183,0.0222,0.0334,0.0376,0.0525,0.0195,0.0194,0.0193,0,-0.0676,-0.0693,-0.0727,-0.0725,-0.0708,-0.0707,-0.069,-0.0624,-0.0605,-0.0522,-0.0495,-0.038,-0.0317,-0.0197,-0.0021,-0.0035,0.015,0.0153,0.0296,0.0302,0.0365,0.0375,0.0557,0.0251,0.025,0.025,0.025,0,-0.0736,-0.0761,-0.0762,-0.0782,-0.0817,-0.0775,-0.0786,-0.0746,-0.069,-0.0667,-0.0548,-0.0494,-0.032,-0.0183,-0.0039,0.0168,0.0143,0.0299,0.0339,0.0346,0.0352,0.0519,0.0569,0.0255,0.0254,0.0253,0.0252,0,-0.0797,-0.0797,-0.0839,-0.0846,-0.0849,-0.0873,-0.0861,-0.0863,-0.0795,-0.076,-0.0736,-0.0578,-0.0388,-0.0192,0.0025,0.0153,0.0437,0.0413,0.0421,0.0459,0.0713,0.0757,0.0972,0.1054,0.0579,0.0581,0.0583,0,-0.0831,-0.086,-0.0899,-0.093,-0.0936,-0.096,-0.0973,-0.0924,-0.0916,-0.08,-0.0785,-0.0598,-0.0439,-0.0081,0.0173,0.0446,0.0551,0.0619,0.0598,0.0745,0.0824,0.0853,0.0907,0.0663,0.0666,0.0668,0.0669,0,-0.0894,-0.0906,-0.0942,-0.1013,-0.1045,-0.1077,-0.1086,-0.1097,-0.1023,-0.0961,-0.0832,-0.0692,-0.0332,-0.0,0.0357,0.0519,0.0728,0.0668,0.0818,0.0908,0.0954,0.1045,0.0571,0.0687,0.0685,0.0684,0.0683,0.0682,-0.0933,-0.0979,-0.1028,-0.1088,-0.1132,-0.1172,-0.1187,-0.1168,-0.1133,-0.101,-0.0874,-0.0623,-0.0155,0.0362,0.0551,0.0939,0.0895,0.1046,0.109,0.1109,0.1184,0.0757,0.0915,0.0914,0.0914,0.0914,0.0914,0,-0.0977,-0.1026,-0.1097,-0.1166,-0.1221,-0.1222,-0.124,-0.1216,-0.1157,-0.1005,-0.0837,-0.0317,0.0156,0.0585,0.1131,0.1345,0.1377,0.145,0.1493,0.1529,0.1159,0.1158,0.1379,0.1379,0.1378,0.1378,0.1378,0.1378,-0.1001,-0.1076,-0.1115,-0.1215,-0.126,-0.1294,-0.1295,-0.1227,-0.111,-0.0821,-0.053,-0.0297,0.0315,0.1187,0.1689,0.1735,0.1896,0.189,0.1982,0.1719,0.1684,0.165,0.1665,0.1988,0.1988,0.2332,0.2336,0.2338]}],[{"header":{"parameterUnit":"m.s-1","parameterCategory":2,"la1":30.2991,"la2":30.254,"lo1":-89.0895,"lo2":-89.0444,"dy":0.0017,"dx":0.0017,"nx":28,"ny":28,"refTime":"2025-12-15T09:00:00:Z","depth":"2","parameterNumber":2,"parameterNumberName":"U-component_of_CURRENTS"},"data":[0,0,0,0,0,0,0,0,0,0,0,0,0,0,0,0,0,0,0,0,0,0,0,0,0,0,0,0,0,0,0,0,0,0,0,0,0,0,0,0,0,0,0,0,0,0,0,0,0,0,0,0,0,0,0,0,0,0,-0.243,-0.2431,0,-0.247,-0.247,-0.2471,-0.2413,-0.2411,-0.2409,-0.2407,-0.2368,-0.2369,-0.237,0,0,0,0,0,0,0,0,0,0,0,0,0,-0.2317,-0.2319,-0.243,-0.2431,-0.2432,-0.247,-0.247,-0.2471,-0.2413,-0.2411,-0.2408,-0.2406,-0.2368,-0.2369,-0.237,0,0,0,0,0,0,0,0,0,0,0,0,0,-0.236,-0.232,-0.243,-0.2409,-0.2408,-0.247,-0.247,-0.2471,-0.2413,-0.2411,-0.2408,-0.2405,-0.2368,-0.2369,-0.237,-0.2431,0,0,-0.2373,-0.2373,0,0,0,0,0,0,0,0,-0.2358,-0.2364,-0.2412,-0.2411,-0.241,-0.2436,-0.2416,-0.2454,-0.2414,-0.2409,-0.2407,-0.2404,-0.2387,-0.2387,-0.2398,-0.2429,-0.2427,-0.2373,-0.2373,-0.2374,-0.2374,0,0,0,0,0,0,0,-0.2355,-0.2362,-0.2444,-0.2413,-0.2412,-0.2403,-0.2405,-0.2424,-0.2409,-0.2409,-0.2405,-0.2415,-0.2385,-0.2397,-0.2396,-0.2426,-0.2373,-0.2374,-0.2374,-0.2375,-0.2455,-0.2457,0,0,0,0,0,0,-0.2358,-0.236,-0.2442,-0.2445,-0.2379,-0.2407,-0.241,-0.2428,-0.2411,-0.2407,-0.2417,-0.2412,-0.2397,-0.2395,-0.2394,-0.2415,-0.2374,-0.2375,-0.2375,-0.2454,-0.2456,-0.2457,0,0,0,0,0,0,-0.2356,-0.2366,-0.2441,-0.2404,-0.2413,-0.2412,-0.2433,-0.243,-0.2432,-0.2418,-0.2412,-0.2419,-0.2394,-0.2393,-0.2409,-0.2414,-0.2375,-0.2376,-0.2452,-0.2454,-0.2456,-0.2488,0,0,0,0,0,0,-0.2353,-0.2365,-0.2377,-0.2405,-0.2416,-0.2474,-0.2436,-0.2433,-0.2443,-0.2437,-0.2419,-0.2413,-0.2392,-0.2408,-0.241,-0.2415,-0.2377,-0.245,-0.2453,-0.2456,-0.2485,-0.2491,-0.2497,0,0,0,0,0,-0.2349,-0.2377,-0.2378,-0.2388,-0.2434,-0.2475,-0.248,-0.2467,-0.2446,-0.2456,-0.2445,-0.2413,-0.2427,-0.2411,-0.2413,-0.2418,-0.2449,-0.2452,-0.2456,-0.2483,-0.249,-0.2496,0,0,0,0,0,0,-0.2334,-0.2375,-0.2376,-0.2415,-0.2442,-0.2466,-0.2478,-0.2476,-0.248,-0.2468,-0.2443,-0.2439,-0.2451,-0.2445,-0.2428,-0.2452,-0.243,-0.2434,-0.2449,-0.2456,-0.2462,-0.2441,-0.2378,0,0,0,0,0,-0.2341,-0.2366,-0.2407,-0.2434,-0.2452,-0.2468,-0.2483,-0.2482,-0.2492,-0.249,-0.2481,-0.2474,-0.2475,-0.2471,-0.2476,-0.2502,-0.248,-0.2505,-0.2511,-0.2515,-0.2502,-0.2487,-0.2489,-0.2469,-0.2469,-0.2469,0,0,-0.234,-0.2368,-0.238,-0.2432,-0.245,-0.2478,-0.2469,-0.2499,-0.2509,-0.2489,-0.2498,-0.2499,-0.2489,-0.2505,-0.251,-0.2494,-0.2516,-0.252,-0.2523,-0.2507,-0.249,-0.2492,-0.2493,-0.2471,-0.2471,-0.247,0,0,-0.2349,-0.2382,-0.2402,-0.2432,-0.2472,-0.249,-0.2501,-0.2535,-0.2533,-0.2564,-0.254,-0.2546,-0.2561,-0.2545,-0.254,-0.2587,-0.2549,-0.2593,-0.2598,-0.2584,-0.2585,-0.2585,-0.2577,-0.2576,-0.2591,-0.2591,-0.2591,0,-0.2342,-0.2377,-0.2414,-0.2445,-0.2463,-0.2494,-0.2516,-0.2537,-0.2567,-0.257,-0.2566,-0.258,-0.2574,-0.2572,-0.2583,-0.2595,-0.2584,-0.2568,-0.2589,-0.2588,-0.2588,-0.2579,-0.2577,-0.2593,-0.2593,-0.2593,-0.2592,0,-0.2364,-0.2392,-0.2411,-0.2453,-0.2484,-0.2513,-0.2551,-0.2576,-0.2586,-0.2597,-0.2611,-0.2616,-0.2612,-0.2621,-0.2614,-0.2612,-0.2606,-0.2598,-0.2563,-0.2591,-0.2581,-0.2579,-0.2596,-0.2595,-0.2595,-0.2594,0,0,-0.2331,-0.2408,-0.2409,-0.2425,-0.2489,-0.2513,-0.2549,-0.2581,-0.2589,-0.262,-0.2623,-0.2635,-0.2634,-0.2629,-0.2626,-0.2617,-0.2615,-0.2607,-0.2605,-0.2584,-0.2588,-0.2526,-0.2517,-0.2609,-0.2609,-0.2608,-0.2588,0,-0.2324,-0.2369,-0.2413,-0.2445,-0.247,-0.2518,-0.2546,-0.258,-0.2606,-0.2625,-0.2631,-0.2639,-0.2638,-0.2639,-0.2632,-0.2623,-0.2608,-0.2621,-0.2576,-0.2574,-0.2503,-0.2512,-0.2322,-0.2281,-0.2585,-0.2585,-0.2584,0,-0.2312,-0.2347,-0.2379,-0.2435,-0.245,-0.2476,-0.2518,-0.255,-0.2591,-0.2613,-0.2626,-0.2636,-0.2637,-0.2632,-0.2614,-0.2623,-0.2602,-0.2592,-0.2591,-0.2511,-0.2506,-0.2301,-0.2265,-0.258,-0.2581,-0.2581,-0.2581,0,-0.2246,-0.2312,-0.2331,-0.2353,-0.2431,-0.2446,-0.2481,-0.2533,-0.256,-0.2597,-0.2621,-0.2626,-0.2633,-0.2612,-0.2604,-0.2606,-0.258,-0.2578,-0.2499,-0.2495,-0.2311,-0.2291,-0.2544,-0.2544,-0.2544,-0.2544,-0.2544,0,-0.221,-0.2221,-0.23,-0.2312,-0.2333,-0.2401,-0.2426,-0.2467,-0.2526,-0.2547,-0.2599,-0.2613,-0.2627,-0.2623,-0.2603,-0.2545,-0.2576,-0.2489,-0.2478,-0.2321,-0.2303,-0.2542,-0.2542,-0.2544,-0.2544,-0.2544,-0.2544,0,-0.2126,-0.2181,-0.2206,-0.2282,-0.2302,-0.2313,-0.2394,-0.2412,-0.2485,-0.2516,-0.2529,-0.2599,-0.2592,-0.2599,-0.2572,-0.2535,-0.2492,-0.246,-0.2282,-0.2249,-0.2418,-0.2421,-0.2362,-0.2359,-0.2357,-0.2355,-0.2354,0,-0.2084,-0.209,-0.2163,-0.2174,-0.2205,-0.2244,-0.2269,-0.2365,-0.2393,-0.2495,-0.2496,-0.2531,-0.2516,-0.248,-0.242,-0.2359,-0.2431,-0.2154,-0.2113,-0.24,-0.2396,-0.2402,-0.2407,-0.1892,-0.1887,-0.1883,-0.1879,0,-0.1998,-0.2026,-0.2049,-0.2077,-0.2101,-0.2136,-0.2183,-0.2207,-0.2312,-0.2347,-0.2381,-0.2382,-0.2368,-0.2224,-0.2171,-0.211,-0.2151,-0.2066,-0.2391,-0.1976,-0.1957,-0.1954,-0.1974,-0.1842,-0.1845,-0.1848,-0.185,-0.1852,-0.1919,-0.1913,-0.1945,-0.1956,-0.1985,-0.1996,-0.198,-0.2044,-0.2067,-0.2081,-0.2185,-0.2124,-0.212,-0.1932,-0.1844,-0.1779,-0.1923,-0.1828,-0.1841,-0.1858,-0.1815,-0.1794,-0.1641,-0.1644,-0.1646,-0.1648,-0.1649,0,-0.1809,-0.1814,-0.182,-0.183,-0.1805,-0.1866,-0.1889,-0.1847,-0.1816,-0.1859,-0.1855,-0.1679,-0.1589,-0.1596,-0.1438,-0.1413,-0.1394,-0.1351,-0.1321,-0.1359,-0.1393,-0.1326,-0.1022,-0.102,-0.1018,-0.1017,0,0,-0.1752,-0.1713,-0.1714,-0.1635,-0.1638,-0.1561,-0.154,-0.1499,-0.1492,-0.1418,-0.1385,-0.1494,-0.1541,-0.128,-0.1221,-0.1097,-0.1213,-0.1039,-0.154,-0.1542,-0.1573,-0.1664,-0.1604,0,0,0,0,0]},{"header":{"parameterUnit":"m.s-1","parameterCategory":2,"la1":30.2991,"la2":30.254,"lo1":-89.0895,"lo2":-89.0444,"dy":0.0017,"dx":0.0017,"nx":28,"ny":28,"refTime":"2025-12-15T09:00:00:Z","depth":"2","parameterNumber":3,"parameterNumberName":"V-component_of_CURRENTS"},"data":[0,0,0,0,0,0,0,0,0,0,0,0,0,0,0,0,0,0,0,0,0,0,0,0,0,0,0,0,0,0,0,0,0,0,0,0,0,0,0,0,0,0,0,0,0,0,0,0,0,0,0,0,0,0,0,0,0,0,-0.0253,-0.0252,0,-0.0188,-0.0187,-0.0187,-0.0134,-0.0134,-0.0134,-0.0133,-0.0024,-0.0022,-0.0019,0,0,0,0,0,0,0,0,0,0,0,0,0,-0.0277,-0.0277,-0.0253,-0.0252,-0.0251,-0.0188,-0.0187,-0.0186,-0.0135,-0.0134,-0.0134,-0.0133,-0.0025,-0.0022,-0.0019,0,0,0,0,0,0,0,0,0,0,0,0,0,-0.0243,-0.0277,-0.0253,-0.0219,-0.0215,-0.0189,-0.0187,-0.0186,-0.0135,-0.0134,-0.0133,-0.0133,-0.0026,-0.0023,-0.0019,-0.0008,0,0,-0.0007,-0.0006,0,0,0,0,0,0,0,0,-0.0245,-0.0242,-0.0224,-0.0221,-0.0217,-0.017,-0.0156,-0.0125,-0.0135,-0.0164,-0.0133,-0.0133,-0.007,-0.0063,-0.0051,-0.0003,0.0002,-0.0007,-0.0005,-0.0003,-0.0002,0,0,0,0,0,0,0,-0.0248,-0.0245,-0.0226,-0.0224,-0.0219,-0.0188,-0.0183,-0.015,-0.0119,-0.0161,-0.0158,-0.0153,-0.0068,-0.0055,-0.0048,0.0004,-0.0007,-0.0004,-0.0001,0.0,0.0091,0.0091,0,0,0,0,0,0,-0.0262,-0.0247,-0.0228,-0.0224,-0.0232,-0.0189,-0.0183,-0.0185,-0.0121,-0.0111,-0.0153,-0.0151,-0.0061,-0.0052,-0.0044,-0.0015,-0.0003,0.0001,0.0003,0.0091,0.0091,0.0091,0,0,0,0,0,0,-0.0263,-0.0261,-0.023,-0.0235,-0.0229,-0.019,-0.0191,-0.0184,-0.0171,-0.0115,-0.0105,-0.0149,-0.0061,-0.0049,-0.0013,-0.0011,0.0002,0.0006,0.0091,0.0091,0.0091,0.0035,0,0,0,0,0,0,-0.0264,-0.0262,-0.0269,-0.0236,-0.0229,-0.0221,-0.0192,-0.0183,-0.0169,-0.0165,-0.0108,-0.0097,-0.0059,-0.0019,-0.0009,-0.0005,0.0009,0.0091,0.0091,0.0091,0.0037,0.0033,0.003,0,0,0,0,0,-0.0265,-0.0284,-0.027,-0.0268,-0.024,-0.0222,-0.0215,-0.0184,-0.017,-0.0169,-0.0127,-0.0099,-0.001,-0.0016,-0.0005,0.0001,0.0091,0.0091,0.0091,0.0038,0.0034,0.0031,0,0,0,0,0,0,-0.0301,-0.0279,-0.0264,-0.0275,-0.0251,-0.0213,-0.0213,-0.019,-0.0157,-0.0153,-0.0098,-0.0085,-0.0052,-0.0019,-0.0027,0.0028,0.0046,0.0048,0.0001,-0.0002,-0.0005,-0.0018,0.0012,0,0,0,0,0,-0.0313,-0.0318,-0.0288,-0.0296,-0.0288,-0.0251,-0.024,-0.0219,-0.0186,-0.0171,-0.0129,-0.0083,-0.0042,-0.0018,0.0019,0.0048,0.0084,0.006,0.0057,0.0054,0.0051,0.0102,0.0103,0.0093,0.0093,0.0093,0,0,-0.0329,-0.0318,-0.0321,-0.0303,-0.0283,-0.0278,-0.0243,-0.0233,-0.0223,-0.0164,-0.0138,-0.0095,-0.0038,-0.0005,0.0013,0.0024,0.0076,0.0054,0.0051,0.0051,0.0102,0.0103,0.0104,0.0093,0.0093,0.0093,0,0,-0.0367,-0.0354,-0.0371,-0.0354,-0.0331,-0.0305,-0.0306,-0.0269,-0.0246,-0.0219,-0.017,-0.0126,-0.0071,-0.0023,0.0007,0.0009,0.0055,0.002,-0.0001,0.0047,0.0048,0.005,0.0096,0.0102,0.0022,0.0022,0.0022,0,-0.0388,-0.0401,-0.0372,-0.038,-0.0371,-0.0322,-0.0332,-0.0302,-0.0256,-0.0234,-0.0219,-0.0124,-0.0077,-0.0024,-0.0021,0.0002,0.0034,0.0006,0.0042,0.0044,0.0047,0.0094,0.0102,0.002,0.002,0.002,0.002,0,-0.0434,-0.044,-0.0448,-0.0439,-0.0425,-0.0426,-0.0382,-0.036,-0.0326,-0.0288,-0.0234,-0.0167,-0.0108,-0.0085,-0.0051,-0.0007,0.0011,0.0027,0.0047,0.0044,0.0095,0.0104,0.0016,0.0017,0.0018,0.0018,0,0,-0.0489,-0.0483,-0.0485,-0.0489,-0.0456,-0.0452,-0.043,-0.0393,-0.0376,-0.0318,-0.0287,-0.0208,-0.0166,-0.013,-0.0075,-0.0028,0.0019,0.0001,0.0005,0.004,0.0125,0.0156,0.0169,0.0038,0.0039,0.004,0.0153,0,-0.0532,-0.0565,-0.0543,-0.0561,-0.0571,-0.0518,-0.0502,-0.0458,-0.0408,-0.0364,-0.0279,-0.0231,-0.0184,-0.0156,-0.0101,-0.0012,0.0039,-0.0013,0.013,0.0134,0.0156,0.0179,0.0146,0.0245,0.0162,0.0163,0.0164,0,-0.058,-0.0596,-0.0629,-0.062,-0.0618,-0.0617,-0.0578,-0.0556,-0.0474,-0.0433,-0.0363,-0.0296,-0.0208,-0.0175,-0.0024,-0.0062,0.0024,0.0094,0.01,0.0155,0.0182,0.0237,0.0264,0.0179,0.0178,0.0177,0.0176,0,-0.0636,-0.0651,-0.068,-0.0678,-0.0662,-0.066,-0.0643,-0.0579,-0.056,-0.0475,-0.0448,-0.0334,-0.0277,-0.0159,-0.0008,-0.0017,0.0157,0.0164,0.0277,0.028,0.0294,0.0297,0.0269,0.0269,0.0269,0.0268,0.0268,0,-0.0688,-0.0709,-0.0711,-0.0728,-0.0757,-0.0719,-0.0724,-0.0685,-0.0629,-0.0605,-0.0491,-0.0442,-0.0272,-0.0148,-0.0018,0.0162,0.0155,0.0281,0.0315,0.0274,0.0274,0.0247,0.0243,0.0273,0.0272,0.0271,0.027,0,-0.0741,-0.0742,-0.0778,-0.0783,-0.0786,-0.0806,-0.0794,-0.0791,-0.0726,-0.0691,-0.0668,-0.0519,-0.0352,-0.017,0.0036,0.0149,0.0316,0.0382,0.0323,0.0348,0.0408,0.04,0.0514,0.0516,0.0518,0.0519,0.0521,0,-0.0771,-0.0797,-0.0831,-0.086,-0.0866,-0.0886,-0.0897,-0.0849,-0.0838,-0.0734,-0.0719,-0.0552,-0.0416,-0.0094,0.0131,0.0375,0.0375,0.0482,0.0463,0.0413,0.0435,0.0424,0.0413,0.0461,0.0462,0.0462,0.0463,0,-0.0825,-0.0837,-0.0869,-0.0935,-0.0965,-0.0991,-0.0998,-0.1007,-0.0938,-0.0883,-0.0775,-0.0657,-0.0344,-0.0075,0.0241,0.0377,0.0439,0.0502,0.048,0.0399,0.0372,0.039,0.038,0.0468,0.0467,0.0467,0.0466,0.0466,-0.0859,-0.09,-0.0945,-0.1002,-0.1043,-0.108,-0.1093,-0.1076,-0.1046,-0.094,-0.0828,-0.0619,-0.0361,0.0091,0.0314,0.0521,0.0514,0.0565,0.056,0.0556,0.0524,0.0501,0.0616,0.0616,0.0616,0.0617,0.0617,0,-0.0898,-0.0943,-0.1007,-0.1071,-0.1123,-0.1126,-0.1143,-0.1122,-0.1075,-0.0946,-0.0808,-0.0512,-0.0202,0.0073,0.0403,0.0598,0.0576,0.0626,0.0556,0.055,0.0545,0.0511,0.06,0.0601,0.0601,0.0602,0,0,-0.0918,-0.0986,-0.1021,-0.1116,-0.1162,-0.1197,-0.1201,-0.1142,-0.1041,-0.0897,-0.0736,-0.0525,-0.0191,0.0037,0.028,0.0454,0.0452,0.0469,0.0462,0.0345,0.0337,0.0491,0.0429,0,0,0,0,0]}],[{"header":{"parameterUnit":"m.s-1","parameterCategory":2,"la1":30.2991,"la2":30.254,"lo1":-89.0895,"lo2":-89.0444,"dy":0.0017,"dx":0.0017,"nx":28,"ny":28,"refTime":"2025-12-15T09:00:00:Z","depth":"4","parameterNumber":2,"parameterNumberName":"U-component_of_CURRENTS"},"data":[0,0,0,0,0,0,0,0,0,0,0,0,0,0,0,0,0,0,0,0,0,0,0,0,0,0,0,0,0,0,0,0,0,0,0,0,0,0,0,0,0,0,0,0,0,0,0,0,0,0,0,0,0,0,0,0,0,0,-0.1725,-0.1725,0,-0.1797,-0.1798,-0.1798,-0.1812,-0.1812,-0.1812,-0.1811,-0.1856,-0.1858,-0.1859,0,0,0,0,0,0,0,0,0,0,0,0,0,-0.1612,-0.1613,-0.1724,-0.1726,-0.1727,-0.1797,-0.1798,-0.1799,-0.1812,-0.1812,-0.1811,-0.1811,-0.1856,-0.1858,-0.186,0,0,0,0,0,0,0,0,0,0,0,0,0,-0.1668,-0.1614,-0.1724,-0.1743,-0.1746,-0.1797,-0.1798,-0.1799,-0.1813,-0.1812,-0.1811,-0.1811,-0.1855,-0.1858,-0.186,-0.1887,0,0,-0.1867,-0.1868,0,0,0,0,0,0,0,0,-0.1665,-0.1672,-0.1739,-0.1742,-0.1745,-0.1796,-0.1775,-0.1828,-0.1813,-0.1785,-0.1811,-0.181,-0.1835,-0.1839,-0.1852,-0.1889,-0.1891,-0.1867,-0.1869,-0.187,-0.1871,0,0,0,0,0,0,0,-0.1661,-0.1669,-0.1751,-0.1741,-0.1744,-0.1753,-0.176,-0.1785,-0.1811,-0.1788,-0.1789,-0.18,-0.1836,-0.185,-0.1853,-0.1892,-0.1867,-0.1869,-0.1871,-0.1872,-0.1992,-0.1994,0,0,0,0,0,0,-0.1656,-0.1666,-0.1749,-0.1754,-0.1705,-0.1755,-0.1763,-0.1779,-0.1812,-0.1817,-0.1801,-0.1801,-0.1846,-0.1851,-0.1855,-0.1924,-0.187,-0.1872,-0.1873,-0.1991,-0.1993,-0.1995,0,0,0,0,0,0,-0.1653,-0.1663,-0.1746,-0.1712,-0.1724,-0.1758,-0.1776,-0.1781,-0.1817,-0.1822,-0.1826,-0.1834,-0.1846,-0.1852,-0.1901,-0.1924,-0.1873,-0.1875,-0.1989,-0.1991,-0.1994,-0.2039,0,0,0,0,0,0,-0.165,-0.1662,-0.1686,-0.1712,-0.1725,-0.179,-0.1777,-0.1783,-0.1824,-0.1825,-0.1852,-0.1854,-0.1846,-0.1897,-0.1903,-0.1926,-0.1877,-0.1986,-0.199,-0.1993,-0.2035,-0.2043,-0.2049,0,0,0,0,0,-0.1646,-0.1675,-0.1687,-0.1698,-0.1753,-0.1791,-0.1799,-0.1819,-0.1827,-0.1849,-0.1871,-0.1854,-0.1922,-0.1901,-0.1908,-0.1932,-0.1985,-0.1989,-0.1993,-0.2032,-0.2041,-0.2049,0,0,0,0,0,0,-0.1641,-0.168,-0.1693,-0.1735,-0.1768,-0.1794,-0.1824,-0.1839,-0.1876,-0.1886,-0.1884,-0.1889,-0.1936,-0.1937,-0.1915,-0.1978,-0.1948,-0.1954,-0.1976,-0.1985,-0.1992,-0.1974,-0.1879,0,0,0,0,0,-0.1652,-0.1683,-0.1719,-0.1755,-0.1775,-0.1807,-0.1832,-0.1849,-0.1879,-0.1896,-0.1916,-0.1938,-0.1956,-0.1973,-0.1991,-0.2036,-0.2015,-0.2055,-0.2062,-0.2067,-0.2059,-0.2055,-0.206,-0.2008,-0.2008,-0.2008,0,0,-0.166,-0.1686,-0.1706,-0.1756,-0.1786,-0.1818,-0.1821,-0.1869,-0.1896,-0.1895,-0.1952,-0.1969,-0.1975,-0.2016,-0.2037,-0.2021,-0.2075,-0.2072,-0.2077,-0.2065,-0.206,-0.2064,-0.2068,-0.201,-0.201,-0.2009,0,0,-0.1676,-0.1718,-0.1745,-0.1777,-0.1829,-0.185,-0.187,-0.1918,-0.1942,-0.1999,-0.1998,-0.2031,-0.2076,-0.2076,-0.208,-0.2142,-0.2113,-0.2157,-0.2178,-0.2176,-0.2179,-0.2182,-0.217,-0.2171,-0.216,-0.216,-0.216,0,-0.1685,-0.1721,-0.1759,-0.1791,-0.1821,-0.1865,-0.1897,-0.1932,-0.199,-0.2012,-0.2023,-0.2085,-0.2096,-0.2121,-0.2141,-0.2154,-0.2147,-0.2142,-0.2182,-0.2184,-0.2186,-0.2173,-0.2174,-0.2162,-0.2162,-0.2162,-0.2162,0,-0.1707,-0.175,-0.1772,-0.1822,-0.1861,-0.1902,-0.1949,-0.1997,-0.2038,-0.2063,-0.2119,-0.2141,-0.2168,-0.2184,-0.2182,-0.2208,-0.2197,-0.2189,-0.2153,-0.2194,-0.2178,-0.2178,-0.2166,-0.2165,-0.2165,-0.2164,0,0,-0.1682,-0.1769,-0.1778,-0.1808,-0.1883,-0.1912,-0.1972,-0.2025,-0.206,-0.212,-0.2156,-0.2198,-0.2213,-0.2219,-0.2227,-0.2231,-0.2245,-0.2223,-0.2221,-0.2198,-0.2238,-0.2096,-0.2082,-0.2248,-0.2248,-0.2248,-0.2223,0,-0.1685,-0.1742,-0.1788,-0.1848,-0.1881,-0.1945,-0.1992,-0.2049,-0.2101,-0.2151,-0.2179,-0.2219,-0.2224,-0.2246,-0.2252,-0.2251,-0.2247,-0.2252,-0.2213,-0.2211,-0.2069,-0.2077,-0.2249,-0.2222,-0.2222,-0.2222,-0.2222,0,-0.1674,-0.1719,-0.1777,-0.1858,-0.188,-0.1926,-0.2007,-0.2055,-0.2128,-0.217,-0.2214,-0.224,-0.2268,-0.2264,-0.2267,-0.2275,-0.2257,-0.2248,-0.2247,-0.2092,-0.2068,-0.2174,-0.2221,-0.2221,-0.2222,-0.2222,-0.2222,0,-0.1613,-0.1703,-0.1749,-0.178,-0.1881,-0.1925,-0.1979,-0.2061,-0.2104,-0.2181,-0.2218,-0.2255,-0.228,-0.2272,-0.2265,-0.2272,-0.2253,-0.2254,-0.2106,-0.2096,-0.2212,-0.2209,-0.2237,-0.2237,-0.2237,-0.2237,-0.2237,0,-0.1575,-0.1615,-0.1732,-0.1757,-0.1816,-0.1898,-0.1964,-0.2025,-0.2109,-0.2143,-0.2221,-0.2238,-0.2285,-0.2285,-0.2267,-0.2176,-0.2251,-0.2094,-0.2072,-0.2235,-0.2235,-0.2212,-0.2209,-0.2236,-0.2236,-0.2236,-0.2236,0,-0.1492,-0.1571,-0.1631,-0.175,-0.1789,-0.1831,-0.1952,-0.1987,-0.2085,-0.2131,-0.2156,-0.2234,-0.2222,-0.2242,-0.2226,-0.2158,-0.2099,-0.2047,-0.2215,-0.2207,-0.1946,-0.1947,-0.187,-0.1864,-0.186,-0.1856,-0.1853,0,-0.1449,-0.1475,-0.1609,-0.1646,-0.1705,-0.1788,-0.1835,-0.1956,-0.1988,-0.21,-0.2097,-0.2139,-0.2166,-0.2025,-0.2068,-0.2005,-0.1982,-0.1943,-0.194,-0.1918,-0.1906,-0.1914,-0.192,-0.1845,-0.1844,-0.1843,-0.1842,0,-0.1365,-0.143,-0.1482,-0.1559,-0.1623,-0.1685,-0.1761,-0.1773,-0.1889,-0.2002,-0.1972,-0.1955,-0.1937,-0.1915,-0.1877,-0.1838,-0.1964,-0.1895,-0.1904,-0.1901,-0.1888,-0.1882,-0.1894,-0.1826,-0.1828,-0.183,-0.1831,0,-0.1303,-0.1319,-0.1396,-0.1447,-0.1522,-0.1541,-0.1608,-0.1635,-0.1683,-0.1805,-0.1788,-0.1834,-0.1909,-0.1827,-0.1795,-0.174,-0.1714,-0.1657,-0.1678,-0.1696,-0.165,-0.1609,-0.1425,0,0,0,0,0,-0.123,-0.1233,-0.1274,-0.1324,-0.1391,-0.1431,-0.1532,-0.1601,-0.1716,-0.164,-0.1708,-0.1679,-0.1631,-0.1664,-0.1567,-0.1718,-0.1724,-0.1599,-0.1673,-0.1738,-0.1756,-0.1718,0,0,0,0,0,0,-0.1182,-0.1217,-0.1228,-0.1199,-0.1205,-0.1263,-0.1319,-0.1407,-0.1377,-0.1497,-0.1475,-0.1568,-0.1544,-0.1647,-0.1527,-0.1535,-0.1544,-0.1639,-0.1635,-0.1728,-0.1744,-0.1759,-0.1726,0,0,0,0,0]},{"header":{"parameterUnit":"m.s-1","parameterCategory":2,"la1":30.2991,"la2":30.254,"lo1":-89.0895,"lo2":-89.0444,"dy":0.0017,"dx":0.0017,"nx":28,"ny":28,"refTime":"2025-12-15T09:00:00:Z","depth":"4","parameterNumber":3,"parameterNumberName":"V-component_of_CURRENTS"},"data":[0,0,0,0,0,0,0,0,0,0,0,0,0,0,0,0,0,0,0,0,0,0,0,0,0,0,0,0,0,0,0,0,0,0,0,0,0,0,0,0,0,0,0,0,0,0,0,0,0,0,0,0,0,0,0,0,0,0,-0.0206,-0.0205,0,-0.0167,-0.0166,-0.0166,-0.0131,-0.013,-0.013,-0.013,-0.0046,-0.0044,-0.0043,0,0,0,0,0,0,0,0,0,0,0,0,0,-0.0211,-0.0211,-0.0206,-0.0205,-0.0205,-0.0167,-0.0166,-0.0166,-0.0131,-0.013,-0.013,-0.0129,-0.0047,-0.0045,-0.0042,0,0,0,0,0,0,0,0,0,0,0,0,0,-0.0193,-0.0211,-0.0206,-0.0183,-0.0181,-0.0167,-0.0166,-0.0166,-0.0131,-0.013,-0.013,-0.0129,-0.0048,-0.0045,-0.0042,-0.0034,0,0,-0.0033,-0.0032,0,0,0,0,0,0,0,0,-0.0194,-0.0193,-0.0187,-0.0185,-0.0182,-0.0154,-0.0138,-0.012,-0.0131,-0.0149,-0.013,-0.0129,-0.0079,-0.0074,-0.0067,-0.0031,-0.0027,-0.0033,-0.0031,-0.003,-0.0029,0,0,0,0,0,0,0,-0.0195,-0.0194,-0.0189,-0.0187,-0.0184,-0.0162,-0.0159,-0.0134,-0.0116,-0.0147,-0.0145,-0.0142,-0.0077,-0.007,-0.0064,-0.0026,-0.0033,-0.0031,-0.0029,-0.0028,0.0037,0.0037,0,0,0,0,0,0,-0.0205,-0.0196,-0.0191,-0.0188,-0.0188,-0.0163,-0.016,-0.0163,-0.0117,-0.011,-0.0143,-0.0141,-0.0075,-0.0068,-0.0061,-0.0042,-0.003,-0.0027,-0.0026,0.0037,0.0037,0.0037,0,0,0,0,0,0,-0.0205,-0.0205,-0.0192,-0.0191,-0.0188,-0.0164,-0.0167,-0.0162,-0.0156,-0.0114,-0.0106,-0.0142,-0.0074,-0.0065,-0.0041,-0.0038,-0.0026,-0.0024,0.0037,0.0037,0.0037,-0.0007,0,0,0,0,0,0,-0.0206,-0.0206,-0.0214,-0.0192,-0.0189,-0.019,-0.0168,-0.0162,-0.0156,-0.0153,-0.0111,-0.0103,-0.0073,-0.0045,-0.0038,-0.0034,-0.0021,0.0037,0.0037,0.0037,-0.0006,-0.0009,-0.0011,0,0,0,0,0,-0.0206,-0.0222,-0.0214,-0.0214,-0.02,-0.0191,-0.0187,-0.0166,-0.0156,-0.0158,-0.0128,-0.0104,-0.0039,-0.0043,-0.0034,-0.003,0.0037,0.0037,0.0037,-0.0004,-0.0008,-0.0011,0,0,0,0,0,0,-0.0231,-0.022,-0.0211,-0.0223,-0.021,-0.0185,-0.0188,-0.0173,-0.0151,-0.0148,-0.0106,-0.0096,-0.0073,-0.0047,-0.0052,-0.0011,0.0004,0.0005,-0.0031,-0.0034,-0.0037,-0.0043,-0.0019,0,0,0,0,0,-0.024,-0.0249,-0.023,-0.0241,-0.0236,-0.0213,-0.0208,-0.0194,-0.0172,-0.0162,-0.0131,-0.0097,-0.0067,-0.0048,-0.0021,0.0001,0.0035,0.001,0.0008,0.0005,0.0006,0.0059,0.0062,0.0037,0.0037,0.0037,0,0,-0.0253,-0.0248,-0.0253,-0.0246,-0.0234,-0.0234,-0.0208,-0.0206,-0.0201,-0.0156,-0.0141,-0.0109,-0.0065,-0.0041,-0.0028,-0.0017,0.0029,0.0005,0.0003,0.0005,0.006,0.0062,0.0064,0.0037,0.0037,0.0037,0,0,-0.0283,-0.0279,-0.0294,-0.0285,-0.0274,-0.0257,-0.0259,-0.0237,-0.0221,-0.0206,-0.0168,-0.0134,-0.0096,-0.0056,-0.0032,-0.0033,0.0008,-0.0027,-0.004,0.0011,0.0014,0.0016,0.0056,0.0063,-0.0024,-0.0024,-0.0024,0,-0.0299,-0.0314,-0.0296,-0.0305,-0.0302,-0.0271,-0.0281,-0.0262,-0.0233,-0.0215,-0.0209,-0.0135,-0.0101,-0.0053,-0.0054,-0.0038,-0.0008,-0.0033,0.0008,0.0011,0.0015,0.0055,0.0063,-0.0026,-0.0026,-0.0025,-0.0025,0,-0.0335,-0.0345,-0.0354,-0.0353,-0.0346,-0.0351,-0.0322,-0.031,-0.0289,-0.026,-0.0218,-0.0168,-0.012,-0.0103,-0.008,-0.0035,-0.0023,-0.0007,0.0014,0.0014,0.0057,0.0066,-0.0029,-0.0028,-0.0028,-0.0027,0,0,-0.0373,-0.0379,-0.0382,-0.0388,-0.0372,-0.0371,-0.0359,-0.0333,-0.0319,-0.028,-0.0252,-0.0194,-0.016,-0.013,-0.0088,-0.0042,0.0005,-0.0019,-0.0016,0.0016,0.0111,0.0087,0.0094,0.0027,0.0029,0.003,0.0128,0,-0.0406,-0.0437,-0.0426,-0.0446,-0.0456,-0.0422,-0.0413,-0.0382,-0.0347,-0.0311,-0.0242,-0.0204,-0.0171,-0.0149,-0.0096,-0.0023,0.0028,-0.0023,0.011,0.0114,0.0089,0.0104,0.0034,0.0135,0.0137,0.0139,0.014,0,-0.044,-0.0457,-0.0489,-0.0489,-0.049,-0.0496,-0.0469,-0.0456,-0.0391,-0.036,-0.03,-0.0247,-0.017,-0.0147,-0.0012,-0.0048,0.0027,0.0086,0.0092,0.0092,0.0106,0.0138,0.0157,0.0155,0.0154,0.0153,0.0152,0,-0.0474,-0.0496,-0.0525,-0.0527,-0.0524,-0.0529,-0.0522,-0.0474,-0.046,-0.039,-0.0368,-0.0267,-0.0223,-0.0114,0.0004,-0.0002,0.015,0.0163,0.0217,0.0216,0.0228,0.0225,0.0266,0.0266,0.0266,0.0265,0.0265,0,-0.0505,-0.0528,-0.0549,-0.0565,-0.0595,-0.0573,-0.0584,-0.0556,-0.0513,-0.0494,-0.0401,-0.0361,-0.0213,-0.011,0.0001,0.013,0.0153,0.0219,0.0243,0.0206,0.0199,0.0235,0.023,0.0269,0.0268,0.0267,0.0267,0,-0.0533,-0.0546,-0.0584,-0.0604,-0.0616,-0.0637,-0.0644,-0.0642,-0.0595,-0.0566,-0.0548,-0.0428,-0.0296,-0.0144,0.0036,0.0115,0.0249,0.0294,0.0237,0.0255,0.0282,0.0274,0.0363,0.0363,0.0363,0.0363,0.0363,0,-0.0547,-0.0571,-0.0625,-0.0658,-0.0674,-0.0703,-0.072,-0.069,-0.0681,-0.0606,-0.0591,-0.0465,-0.0371,-0.0129,0.0022,0.0237,0.0265,0.0331,0.0314,0.0279,0.0294,0.0286,0.0278,0.0363,0.0363,0.0363,0.0363,0,-0.0572,-0.0598,-0.0631,-0.0705,-0.0745,-0.0777,-0.0795,-0.0795,-0.0747,-0.0713,-0.0611,-0.0477,-0.0327,-0.014,0.0026,0.0179,0.0283,0.0331,0.0332,0.0317,0.028,0.0293,0.0285,0.0363,0.0363,0.0363,0.0363,0,-0.0589,-0.0625,-0.0679,-0.0736,-0.0795,-0.0828,-0.0834,-0.0809,-0.0788,-0.0697,-0.0669,-0.0491,-0.0387,-0.0169,-0.0017,0.0128,0.0163,0.0204,0.0213,0.0214,0.0136,0.0065,0.0107,0,0,0,0,0,-0.0598,-0.064,-0.0703,-0.0765,-0.0825,-0.0853,-0.087,-0.086,-0.0821,-0.0755,-0.0706,-0.0559,-0.0323,-0.0218,-0.0075,-0.003,0.0174,0.0139,0.0222,0.0363,0.0363,0.0293,0,0,0,0,0,0,-0.0605,-0.0668,-0.0702,-0.0774,-0.082,-0.0873,-0.0885,-0.0861,-0.0809,-0.0753,-0.0623,-0.054,-0.0308,-0.0404,-0.0077,-0.0033,0.0035,0.0256,0.0259,0.0363,0.0363,0.0363,0.0291,0,0,0,0,0]}]]